This is the latest recevied weather packets stored in our database for station/object KG5MMT-12. If no packets are shown the sender has not sent any weather packets the latest 10 day(s).
| Time | Temp. | Humidity | Pressure | Rain* | Wind** | Luminosity | Snow |
|---|---|---|---|---|---|---|---|
| 1777232352 | 13.89° C | 42% | 0 hPa | 0 mm | - | - | - |
| 1777232052 | 13.33° C | 50% | 0 hPa | 0 mm | - | - | - |
| 1777231753 | 13.33° C | 49% | 0 hPa | 0 mm | - | - | - |
| 1777231452 | 13.33° C | 47% | 0 hPa | 0 mm | - | - | - |
| 1777231152 | 13.89° C | 42% | 0 hPa | 0 mm | - | - | - |
| 1777230852 | 13.89° C | 39% | 0 hPa | 0 mm | - | - | - |
| 1777230552 | 14.44° C | 38% | 0 hPa | 0 mm | - | - | - |
| 1777230252 | 14.44° C | 37% | 0 hPa | 0 mm | - | - | - |
| 1777229952 | 15° C | 38% | 0 hPa | 0 mm | - | - | - |
| 1777229652 | 15° C | 37% | 0 hPa | 0 mm | - | - | - |
| 1777229352 | 15.56° C | 35% | 0 hPa | 0 mm | - | - | - |
| 1777229052 | 15.56° C | 33% | 0 hPa | 0 mm | - | - | - |
| 1777228752 | 15.56° C | 32% | 0 hPa | 0 mm | - | - | - |
| 1777228454 | 16.11° C | 33% | 0 hPa | 0 mm | - | - | - |
| 1777228153 | 16.11° C | 33% | 0 hPa | 0 mm | - | - | - |
| 1777227852 | 16.11° C | 31% | 0 hPa | 0 mm | - | - | - |
| 1777227552 | 16.11° C | 32% | 0 hPa | 0 mm | - | - | - |
| 1777227252 | 16.67° C | 31% | 0 hPa | 0 mm | - | - | - |
| 1777226952 | 16.67° C | 31% | 0 hPa | 0 mm | - | - | - |
| 1777226652 | 16.11° C | 31% | 0 hPa | 0 mm | - | - | - |
| 1777226352 | 16.11° C | 33% | 0 hPa | 0 mm | - | - | - |
| 1777226052 | 16.11° C | 32% | 0 hPa | 0 mm | - | - | - |
| 1777225754 | 16.11° C | 34% | 0 hPa | 0 mm | - | - | - |
| 1777225452 | 15.56° C | 34% | 0 hPa | 0 mm | - | - | - |
| 1777225152 | 15° C | 34% | 0 hPa | 0 mm | - | - | - |
* Rain latest hour (hover to see other rain measurements)
** Current wind speed in m/s (hover to see current wind gust speed)